Time,TemperatureF,DewpointF,PressureIn,WindDirection,WindDirectionDegrees,WindSpeedMPH,WindSpeedGustMPH,Humidity,HourlyPrecipIn,Conditions,Clouds,dailyrainin,SoftwareType,DateUTC
2013-07-28 00:00:00,72.9,59.1,29.88,SSE,153,4.0,5.0,62,0.00,,,0.00,Wunderground v.1.15,2013-07-28 06:00:00,
2013-07-28 00:10:00,72.7,58.9,29.89,SE,128,3.0,3.0,62,0.00,,,0.00,Wunderground v.1.15,2013-07-28 06:10:00,
2013-07-28 00:15:00,72.7,59.4,29.89,ESE,117,4.0,5.0,63,0.00,,,0.00,Wunderground v.1.15,2013-07-28 06:15:00,
2013-07-28 00:25:00,72.4,59.1,29.88,SSE,151,4.0,7.0,63,0.00,,,0.00,Wunderground v.1.15,2013-07-28 06:25:00,
2013-07-28 00:30:00,72.3,59.4,29.89,SE,146,3.0,3.0,64,0.00,,,0.00,Wunderground v.1.15,2013-07-28 06:30:00,
2013-07-28 00:40:00,72.0,59.2,29.89,SSE,152,2.0,3.0,64,0.00,,,0.00,Wunderground v.1.15,2013-07-28 06:40:00,
2013-07-28 00:50:00,71.7,59.3,29.88,SE,142,2.0,2.0,65,0.00,,,0.00,Wunderground v.1.15,2013-07-28 06:50:00,
2013-07-28 01:00:00,71.5,59.1,29.88,SE,132,2.0,2.0,65,0.00,,,0.00,Wunderground v.1.15,2013-07-28 07:00:00,
2013-07-28 01:10:00,71.3,59.4,29.88,ESE,119,2.0,2.0,66,0.00,,,0.00,Wunderground v.1.15,2013-07-28 07:10:00,
2013-07-28 01:15:00,71.3,59.4,29.87,ESE,110,3.0,3.0,66,0.00,,,0.00,Wunderground v.1.15,2013-07-28 07:15:00,
2013-07-28 01:25:00,71.4,59.4,29.87,ESE,120,2.0,3.0,66,0.00,,,0.00,Wunderground v.1.15,2013-07-28 07:25:00,
2013-07-28 01:30:00,71.2,59.3,29.87,ESE,118,1.0,2.0,66,0.00,,,0.00,Wunderground v.1.15,2013-07-28 07:30:00,
2013-07-28 01:40:00,71.3,59.4,29.86,SSE,152,2.0,2.0,66,0.00,,,0.00,Wunderground v.1.15,2013-07-28 07:40:00,
2013-07-28 01:45:00,71.3,58.9,29.86,ESE,118,2.0,2.0,65,0.00,,,0.00,Wunderground v.1.15,2013-07-28 07:45:00,
2013-07-28 01:55:00,71.4,59.0,29.86,SE,141,2.0,3.0,65,0.00,,,0.00,Wunderground v.1.15,2013-07-28 07:55:00,
2013-07-28 02:00:00,71.4,59.0,29.86,East,100,3.0,3.0,65,0.00,,,0.00,Wunderground v.1.15,2013-07-28 08:00:00,
2013-07-28 02:10:00,71.4,59.0,29.85,SE,132,3.0,3.0,65,0.00,,,0.00,Wunderground v.1.15,2013-07-28 08:10:00,
2013-07-28 02:20:00,71.2,58.8,29.85,SE,141,2.0,2.0,65,0.00,,,0.00,Wunderground v.1.15,2013-07-28 08:20:00,
2013-07-28 02:25:00,71.2,58.8,29.85,SSE,155,2.0,3.0,65,0.00,,,0.00,Wunderground v.1.15,2013-07-28 08:25:00,
2013-07-28 02:35:00,71.0,58.6,29.85,SE,135,2.0,3.0,65,0.00,,,0.00,Wunderground v.1.15,2013-07-28 08:35:00,
2013-07-28 02:40:00,71.0,59.1,29.85,SSE,152,2.0,2.0,66,0.00,,,0.00,Wunderground v.1.15,2013-07-28 08:40:00,
2013-07-28 02:50:00,70.8,58.9,29.84,SE,134,2.0,3.0,66,0.00,,,0.00,Wunderground v.1.15,2013-07-28 08:50:00,
2013-07-28 02:55:00,70.8,58.9,29.84,ESE,110,2.0,3.0,66,0.00,,,0.00,Wunderground v.1.15,2013-07-28 08:55:00,
2013-07-28 03:00:00,70.8,58.9,29.84,ESE,120,2.0,3.0,66,0.00,,,0.00,Wunderground v.1.15,2013-07-28 09:00:00,
2013-07-28 03:10:00,70.7,58.8,29.84,SE,125,2.0,2.0,66,0.00,,,0.00,Wunderground v.1.15,2013-07-28 09:10:00,
2013-07-28 03:15:00,70.8,58.9,29.84,ESE,120,2.0,2.0,66,0.00,,,0.00,Wunderground v.1.15,2013-07-28 09:15:00,
2013-07-28 03:25:00,70.6,58.7,29.84,SE,129,3.0,3.0,66,0.00,,,0.00,Wunderground v.1.15,2013-07-28 09:25:00,
2013-07-28 03:30:00,70.5,58.6,29.83,SE,132,3.0,3.0,66,0.00,,,0.00,Wunderground v.1.15,2013-07-28 09:30:00,
2013-07-28 03:40:00,70.4,58.9,29.83,SE,141,2.0,2.0,67,0.00,,,0.00,Wunderground v.1.15,2013-07-28 09:40:00,
2013-07-28 03:50:00,70.2,59.1,29.83,SE,146,1.0,1.0,68,0.00,,,0.00,Wunderground v.1.15,2013-07-28 09:50:00,
2013-07-28 03:55:00,70.1,59.0,29.84,SE,144,1.0,1.0,68,0.00,,,0.00,Wunderground v.1.15,2013-07-28 09:55:00,
2013-07-28 04:00:00,70.2,59.1,29.83,SE,134,1.0,3.0,68,0.00,,,0.00,Wunderground v.1.15,2013-07-28 10:00:00,
2013-07-28 04:10:00,70.3,59.2,29.83,SE,125,1.0,1.0,68,0.00,,,0.00,Wunderground v.1.15,2013-07-28 10:10:00,
2013-07-28 04:15:00,70.2,59.1,29.83,ESE,121,1.0,2.0,68,0.00,,,0.00,Wunderground v.1.15,2013-07-28 10:15:00,
2013-07-28 04:25:00,70.0,59.0,29.83,SSE,152,2.0,2.0,68,0.00,,,0.00,Wunderground v.1.15,2013-07-28 10:25:00,
2013-07-28 04:35:00,69.6,59.0,29.83,SSE,159,2.0,2.0,69,0.00,,,0.00,Wunderground v.1.15,2013-07-28 10:35:00,
2013-07-28 04:45:00,69.5,59.3,29.83,SE,141,3.0,4.0,70,0.00,,,0.00,Wunderground v.1.15,2013-07-28 10:45:00,
2013-07-28 04:50:00,69.4,59.2,29.83,SE,134,3.0,3.0,70,0.00,,,0.00,Wunderground v.1.15,2013-07-28 10:50:00,
2013-07-28 05:00:00,69.2,59.4,29.83,SSE,147,2.0,2.0,71,0.00,,,0.00,Wunderground v.1.15,2013-07-28 11:00:00,
2013-07-28 05:10:00,69.0,59.2,29.82,SE,131,2.0,2.0,71,0.00,,,0.00,Wunderground v.1.15,2013-07-28 11:10:00,
2013-07-28 05:20:00,68.9,59.1,29.82,SSE,149,3.0,3.0,71,0.00,,,0.00,Wunderground v.1.15,2013-07-28 11:20:00,
2013-07-28 05:25:00,68.9,59.1,29.82,ESE,107,3.0,3.0,71,0.00,,,0.00,Wunderground v.1.15,2013-07-28 11:25:00,
2013-07-28 05:35:00,68.7,59.3,29.82,SE,131,2.0,2.0,72,0.00,,,0.00,Wunderground v.1.15,2013-07-28 11:35:00,
2013-07-28 05:45:00,68.5,59.1,29.82,SSE,148,1.0,2.0,72,0.00,,,0.00,Wunderground v.1.15,2013-07-28 11:45:00,
2013-07-28 05:55:00,68.4,59.0,29.82,SE,138,2.0,4.0,72,0.00,,,0.00,Wunderground v.1.15,2013-07-28 11:55:00,
2013-07-28 06:00:00,68.3,58.9,29.82,SE,125,2.0,2.0,72,0.00,,,0.00,Wunderground v.1.15,2013-07-28 12:00:00,
2013-07-28 06:10:00,68.3,58.9,29.83,SE,145,3.0,4.0,72,0.00,,,0.00,Wunderground v.1.15,2013-07-28 12:10:00,
2013-07-28 06:20:00,68.3,59.3,29.83,SSE,155,2.0,2.0,73,0.00,,,0.00,Wunderground v.1.15,2013-07-28 12:20:00,
2013-07-28 06:30:00,68.2,59.2,29.83,ESE,108,2.0,2.0,73,0.00,,,0.00,Wunderground v.1.15,2013-07-28 12:30:00,
2013-07-28 06:40:00,68.0,59.0,29.83,SSE,156,2.0,2.0,73,0.00,,,0.00,Wunderground v.1.15,2013-07-28 12:40:00,
2013-07-28 06:45:00,68.0,59.0,29.83,SE,141,2.0,3.0,73,0.00,,,0.00,Wunderground v.1.15,2013-07-28 12:45:00,
2013-07-28 06:50:00,68.1,59.1,29.83,SSE,156,2.0,2.0,73,0.00,,,0.00,Wunderground v.1.15,2013-07-28 12:50:00,
2013-07-28 06:55:00,68.2,59.2,29.83,South,170,2.0,3.0,73,0.00,,,0.00,Wunderground v.1.15,2013-07-28 12:55:00,
2013-07-28 07:00:00,68.3,59.3,29.83,East,99,2.0,3.0,73,0.00,,,0.00,Wunderground v.1.15,2013-07-28 13:00:00,
2013-07-28 07:10:00,68.5,59.1,29.83,ESE,119,3.0,3.0,72,0.00,,,0.00,Wunderground v.1.15,2013-07-28 13:10:00,
2013-07-28 07:15:00,68.6,59.2,29.83,SE,124,3.0,4.0,72,0.00,,,0.00,Wunderground v.1.15,2013-07-28 13:15:00,
2013-07-28 07:25:00,68.7,59.3,29.83,South,173,3.0,4.0,72,0.00,,,0.00,Wunderground v.1.15,2013-07-28 13:25:00,
2013-07-28 07:35:00,68.9,59.5,29.83,SE,137,2.0,3.0,72,0.00,,,0.00,Wunderground v.1.15,2013-07-28 13:35:00,
2013-07-28 07:40:00,69.0,60.0,29.84,ESE,112,3.0,3.0,73,0.00,,,0.00,Wunderground v.1.15,2013-07-28 13:40:00,
2013-07-28 07:50:00,69.2,59.8,29.84,South,179,3.0,3.0,72,0.00,,,0.00,Wunderground v.1.15,2013-07-28 13:50:00,
2013-07-28 08:00:00,69.4,60.4,29.84,East,96,3.0,3.0,73,0.00,,,0.00,Wunderground v.1.15,2013-07-28 14:00:00,
2013-07-28 08:10:00,69.6,60.6,29.83,SE,124,3.0,3.0,73,0.00,,,0.00,Wunderground v.1.15,2013-07-28 14:10:00,
2013-07-28 08:15:00,69.6,60.6,29.84,SSE,156,3.0,4.0,73,0.00,,,0.00,Wunderground v.1.15,2013-07-28 14:15:00,
2013-07-28 08:20:00,69.8,60.4,29.83,SSE,153,3.0,3.0,72,0.00,,,0.00,Wunderground v.1.15,2013-07-28 14:20:00,
2013-07-28 08:30:00,69.9,60.8,29.83,ENE,68,3.0,3.0,73,0.00,,,0.00,Wunderground v.1.15,2013-07-28 14:30:00,
2013-07-28 08:40:00,70.6,60.7,29.84,South,191,2.0,2.0,71,0.00,,,0.00,Wunderground v.1.15,2013-07-28 14:40:00,
2013-07-28 08:50:00,71.1,60.8,29.84,SSW,193,3.0,3.0,70,0.00,,,0.00,Wunderground v.1.15,2013-07-28 14:50:00,
2013-07-28 08:55:00,71.3,61.4,29.84,South,177,3.0,5.0,71,0.00,,,0.00,Wunderground v.1.15,2013-07-28 14:55:00,
2013-07-28 09:00:00,71.3,61.0,29.84,South,169,3.0,3.0,70,0.00,,,0.00,Wunderground v.1.15,2013-07-28 15:00:00,
2013-07-28 09:10:00,71.5,61.2,29.84,SSE,165,3.0,6.0,70,0.00,,,0.00,Wunderground v.1.15,2013-07-28 15:10:00,
2013-07-28 09:15:00,71.4,60.7,29.83,SE,136,4.0,6.0,69,0.00,,,0.00,Wunderground v.1.15,2013-07-28 15:15:00,
2013-07-28 09:25:00,72.2,60.6,29.84,SE,134,3.0,4.0,67,0.00,,,0.00,Wunderground v.1.15,2013-07-28 15:25:00,
2013-07-28 09:30:00,72.5,60.9,29.84,ESE,107,3.0,3.0,67,0.00,,,0.00,Wunderground v.1.15,2013-07-28 15:30:00,
2013-07-28 09:40:00,73.6,61.1,29.83,SE,143,4.0,4.0,65,0.00,,,0.00,Wunderground v.1.15,2013-07-28 15:40:00,
2013-07-28 09:45:00,73.8,60.9,29.84,SE,124,4.0,6.0,64,0.00,,,0.00,Wunderground v.1.15,2013-07-28 15:45:00,
2013-07-28 09:50:00,74.2,60.3,29.83,SE,129,4.0,4.0,62,0.00,,,0.00,Wunderground v.1.15,2013-07-28 15:50:00,
2013-07-28 10:00:00,74.7,59.4,29.83,SSW,212,4.0,4.0,59,0.00,,,0.00,Wunderground v.1.15,2013-07-28 16:00:00,
2013-07-28 10:10:00,75.5,58.7,29.83,SSW,203,3.0,3.0,56,0.00,,,0.00,Wunderground v.1.15,2013-07-28 16:10:00,
2013-07-28 10:15:00,76.1,59.3,29.83,SSW,207,3.0,3.0,56,0.00,,,0.00,Wunderground v.1.15,2013-07-28 16:15:00,
2013-07-28 10:25:00,77.0,58.6,29.83,SE,125,2.0,3.0,53,0.00,,,0.00,Wunderground v.1.15,2013-07-28 16:25:00,
2013-07-28 10:30:00,77.6,59.1,29.83,ESE,121,1.0,1.0,53,0.00,,,0.00,Wunderground v.1.15,2013-07-28 16:30:00,
2013-07-28 10:40:00,79.0,58.2,29.83,SSW,198,1.0,1.0,49,0.00,,,0.00,Wunderground v.1.15,2013-07-28 16:40:00,
2013-07-28 10:50:00,78.8,57.4,29.83,North,353,2.0,2.0,48,0.00,,,0.00,Wunderground v.1.15,2013-07-28 16:50:00,
2013-07-28 10:55:00,78.8,58.6,29.83,ESE,104,2.0,2.0,50,0.00,,,0.00,Wunderground v.1.15,2013-07-28 16:55:00,
2013-07-28 11:00:00,79.6,57.6,29.83,West,271,1.0,1.0,47,0.00,,,0.00,Wunderground v.1.15,2013-07-28 17:00:00,
2013-07-28 11:10:00,79.8,58.4,29.83,SW,217,2.0,2.0,48,0.00,,,0.00,Wunderground v.1.15,2013-07-28 17:10:00,
2013-07-28 11:15:00,79.8,57.8,29.82,West,264,2.0,2.0,47,0.00,,,0.00,Wunderground v.1.15,2013-07-28 17:15:00,
2013-07-28 11:20:00,80.0,58.0,29.82,ESE,122,2.0,2.0,47,0.00,,,0.00,Wunderground v.1.15,2013-07-28 17:20:00,
2013-07-28 11:30:00,80.3,57.6,29.82,NW,311,2.0,2.0,46,0.00,,,0.00,Wunderground v.1.15,2013-07-28 17:30:00,
2013-07-28 11:35:00,80.3,58.2,29.82,ESE,121,2.0,4.0,47,0.00,,,0.00,Wunderground v.1.15,2013-07-28 17:35:00,
2013-07-28 11:45:00,81.3,57.9,29.82,WSW,257,3.0,5.0,45,0.00,,,0.00,Wunderground v.1.15,2013-07-28 17:45:00,
2013-07-28 11:50:00,80.9,56.9,29.81,West,263,3.0,3.0,44,0.00,,,0.00,Wunderground v.1.15,2013-07-28 17:50:00,
2013-07-28 12:00:00,81.4,57.4,29.81,NW,321,1.0,2.0,44,0.00,,,0.00,Wunderground v.1.15,2013-07-28 18:00:00,
2013-07-28 12:10:00,81.9,57.8,29.80,NE,53,1.0,1.0,44,0.00,,,0.00,Wunderground v.1.15,2013-07-28 18:10:00,
2013-07-28 12:15:00,82.5,58.4,29.80,South,174,2.0,5.0,44,0.00,,,0.00,Wunderground v.1.15,2013-07-28 18:15:00,
2013-07-28 12:25:00,82.1,57.4,29.79,NNW,336,2.0,3.0,43,0.00,,,0.00,Wunderground v.1.15,2013-07-28 18:25:00,
2013-07-28 12:35:00,82.9,58.7,29.79,SW,225,2.0,2.0,44,0.00,,,0.00,Wunderground v.1.15,2013-07-28 18:35:00,
2013-07-28 12:45:00,83.6,58.1,29.79,SSE,155,2.0,3.0,42,0.00,,,0.00,Wunderground v.1.15,2013-07-28 18:45:00,
2013-07-28 12:50:00,83.9,59.0,29.79,SW,232,2.0,2.0,43,0.00,,,0.00,Wunderground v.1.15,2013-07-28 18:50:00,
2013-07-28 12:55:00,84.3,58.7,29.78,SE,141,2.0,4.0,42,0.00,,,0.00,Wunderground v.1.15,2013-07-28 18:55:00,
2013-07-28 13:00:00,83.7,58.2,29.78,West,260,3.0,3.0,42,0.00,,,0.00,Wunderground v.1.15,2013-07-28 19:00:00,
2013-07-28 13:10:00,81.0,60.0,29.77,NNE,21,4.0,5.0,49,0.00,,,0.00,Wunderground v.1.15,2013-07-28 19:10:00,
2013-07-28 13:15:00,79.6,59.3,29.77,NNE,18,4.0,5.0,50,0.00,,,0.00,Wunderground v.1.15,2013-07-28 19:15:00,
2013-07-28 13:25:00,80.2,59.9,29.77,NNW,341,3.0,4.0,50,0.00,,,0.00,Wunderground v.1.15,2013-07-28 19:25:00,
2013-07-28 13:30:00,80.3,58.8,29.76,NNE,33,3.0,3.0,48,0.00,,,0.00,Wunderground v.1.15,2013-07-28 19:30:00,
2013-07-28 13:40:00,80.7,59.2,29.76,NNE,33,2.0,2.0,48,0.00,,,0.00,Wunderground v.1.15,2013-07-28 19:40:00,
2013-07-28 13:50:00,80.9,56.3,29.76,NNW,342,2.0,2.0,43,0.00,,,0.00,Wunderground v.1.15,2013-07-28 19:50:00,
2013-07-28 13:55:00,81.3,56.7,29.75,WNW,289,3.0,3.0,43,0.00,,,0.00,Wunderground v.1.15,2013-07-28 19:55:00,
2013-07-28 14:00:00,81.9,55.9,29.75,NNE,16,3.0,3.0,41,0.00,,,0.00,Wunderground v.1.15,2013-07-28 20:00:00,
2013-07-28 14:10:00,83.2,55.0,29.75,NW,316,3.0,3.0,38,0.00,,,0.00,Wunderground v.1.15,2013-07-28 20:10:00,
2013-07-28 14:15:00,83.2,55.7,29.75,NW,325,3.0,4.0,39,0.00,,,0.00,Wunderground v.1.15,2013-07-28 20:15:00,
2013-07-28 14:20:00,84.1,57.2,29.75,North,354,3.0,7.0,40,0.00,,,0.00,Wunderground v.1.15,2013-07-28 20:20:00,
2013-07-28 14:30:00,83.0,55.5,29.74,NE,34,5.0,5.0,39,0.00,,,0.00,Wunderground v.1.15,2013-07-28 20:30:00,
2013-07-28 14:35:00,82.8,55.3,29.74,NW,322,5.0,5.0,39,0.00,,,0.00,Wunderground v.1.15,2013-07-28 20:35:00,
2013-07-28 14:45:00,82.0,57.3,29.74,WSW,253,4.0,4.0,43,0.00,,,0.00,Wunderground v.1.15,2013-07-28 20:45:00,
2013-07-28 14:50:00,81.2,55.9,29.73,WNW,289,4.0,4.0,42,0.00,,,0.00,Wunderground v.1.15,2013-07-28 20:50:00,
2013-07-28 15:00:00,80.9,55.7,29.73,NW,314,1.0,3.0,42,0.00,,,0.00,Wunderground v.1.15,2013-07-28 21:00:00,
2013-07-28 15:10:00,80.8,54.2,29.73,WNW,293,3.0,3.0,40,0.00,,,0.00,Wunderground v.1.15,2013-07-28 21:10:00,
2013-07-28 15:20:00,81.6,54.9,29.73,West,266,3.0,3.0,40,0.00,,,0.00,Wunderground v.1.15,2013-07-28 21:20:00,
2013-07-28 15:30:00,82.3,54.2,29.72,NW,323,2.0,3.0,38,0.00,,,0.00,Wunderground v.1.15,2013-07-28 21:30:00,
2013-07-28 15:35:00,82.4,55.7,29.72,SW,219,2.0,3.0,40,0.00,,,0.00,Wunderground v.1.15,2013-07-28 21:35:00,
2013-07-28 15:45:00,83.4,54.4,29.72,South,183,1.0,1.0,37,0.00,,,0.00,Wunderground v.1.15,2013-07-28 21:45:00,
2013-07-28 15:55:00,84.5,53.0,29.71,WSW,255,1.0,3.0,34,0.00,,,0.00,Wunderground v.1.15,2013-07-28 21:55:00,
2013-07-28 16:00:00,84.7,52.4,29.71,NNE,13,1.0,1.0,33,0.00,,,0.00,Wunderground v.1.15,2013-07-28 22:00:00,
2013-07-28 16:10:00,85.7,52.4,29.71,NNW,328,2.0,4.0,32,0.00,,,0.00,Wunderground v.1.15,2013-07-28 22:10:00,
2013-07-28 16:15:00,85.4,53.8,29.71,NNW,337,3.0,4.0,34,0.00,,,0.00,Wunderground v.1.15,2013-07-28 22:15:00,
2013-07-28 16:25:00,86.4,53.9,29.70,NW,326,3.0,8.0,33,0.00,,,0.00,Wunderground v.1.15,2013-07-28 22:25:00,
2013-07-28 16:35:00,86.9,50.8,29.70,NW,315,5.0,5.0,29,0.00,,,0.00,Wunderground v.1.15,2013-07-28 22:35:00,
2013-07-28 16:45:00,85.5,50.5,29.71,NW,322,6.0,12.0,30,0.00,,,0.00,Wunderground v.1.15,2013-07-28 22:45:00,
2013-07-28 16:50:00,84.8,50.8,29.71,WSW,252,7.0,9.0,31,0.00,,,0.00,Wunderground v.1.15,2013-07-28 22:50:00,
2013-07-28 17:00:00,84.1,51.1,29.71,North,351,6.0,6.0,32,0.00,,,0.00,Wunderground v.1.15,2013-07-28 23:00:00,
2013-07-28 17:10:00,83.6,50.6,29.72,West,273,5.0,5.0,32,0.00,,,0.00,Wunderground v.1.15,2013-07-28 23:10:00,
2013-07-28 17:15:00,83.6,50.6,29.71,North,11,3.0,5.0,32,0.00,,,0.00,Wunderground v.1.15,2013-07-28 23:15:00,
2013-07-28 17:25:00,84.6,51.5,29.71,NNW,328,3.0,3.0,32,0.00,,,0.00,Wunderground v.1.15,2013-07-28 23:25:00,
2013-07-28 17:35:00,85.2,51.1,29.72,NNE,13,5.0,6.0,31,0.00,,,0.00,Wunderground v.1.15,2013-07-28 23:35:00,
2013-07-28 17:40:00,85.5,51.4,29.71,North,6,4.0,4.0,31,0.00,,,0.00,Wunderground v.1.15,2013-07-28 23:40:00,
2013-07-28 17:45:00,85.9,52.6,29.71,NW,322,3.0,8.0,32,0.00,,,0.00,Wunderground v.1.15,2013-07-28 23:45:00,
2013-07-28 17:55:00,85.0,52.7,29.71,North,5,4.0,5.0,33,0.00,,,0.00,Wunderground v.1.15,2013-07-28 23:55:00,
2013-07-28 18:00:00,84.6,52.3,29.72,North,356,4.0,4.0,33,0.00,,,0.00,Wunderground v.1.15,2013-07-29 00:00:00,
2013-07-28 18:10:00,84.0,51.8,29.72,NNW,338,6.0,7.0,33,0.00,,,0.00,Wunderground v.1.15,2013-07-29 00:10:00,
2013-07-28 18:15:00,83.6,52.3,29.72,North,3,6.0,13.0,34,0.00,,,0.00,Wunderground v.1.15,2013-07-29 00:15:00,
2013-07-28 18:20:00,83.2,52.7,29.73,WNW,293,6.0,7.0,35,0.00,,,0.00,Wunderground v.1.15,2013-07-29 00:20:00,
2013-07-28 18:30:00,81.9,55.2,29.74,NW,308,5.0,12.0,40,0.00,,,0.00,Wunderground v.1.15,2013-07-29 00:30:00,
2013-07-28 18:40:00,76.4,57.5,29.76,NNE,23,10.0,11.0,52,0.00,,,0.00,Wunderground v.1.15,2013-07-29 00:40:00,
2013-07-28 18:50:00,71.3,58.5,29.75,SE,137,7.0,7.0,64,0.16,,,0.03,Wunderground v.1.15,2013-07-29 00:50:00,
2013-07-28 18:55:00,70.3,58.8,29.74,East,99,2.0,7.0,67,0.07,,,0.03,Wunderground v.1.15,2013-07-29 00:55:00,
2013-07-28 19:00:00,70.3,60.4,29.74,ESE,105,1.0,1.0,71,0.05,,,0.04,Wunderground v.1.15,2013-07-29 01:00:00,
2013-07-28 19:10:00,72.0,62.1,29.73,East,87,0.0,0.0,71,0.05,,,0.04,Wunderground v.1.15,2013-07-29 01:10:00,
2013-07-28 19:20:00,73.7,59.9,29.72,East,82,0.0,1.0,62,0.00,,,0.04,Wunderground v.1.15,2013-07-29 01:20:00,
2013-07-28 19:25:00,74.3,60.0,29.72,East,79,1.0,1.0,61,0.00,,,0.04,Wunderground v.1.15,2013-07-29 01:25:00,
2013-07-28 19:35:00,74.3,60.4,29.73,ENE,76,0.0,1.0,62,0.00,,,0.04,Wunderground v.1.15,2013-07-29 01:35:00,
2013-07-28 19:40:00,73.9,60.5,29.73,East,86,0.0,0.0,63,0.00,,,0.04,Wunderground v.1.15,2013-07-29 01:40:00,
2013-07-28 19:50:00,73.3,60.4,29.73,NE,43,0.0,0.0,64,0.00,,,0.04,Wunderground v.1.15,2013-07-29 01:50:00,
2013-07-28 20:00:00,72.9,60.9,29.74,NE,49,0.0,0.0,66,0.00,,,0.04,Wunderground v.1.15,2013-07-29 02:00:00,
2013-07-28 20:10:00,72.4,61.7,29.75,NNE,22,0.0,0.0,69,0.00,,,0.04,Wunderground v.1.15,2013-07-29 02:10:00,
2013-07-28 20:20:00,72.4,60.0,29.76,West,262,1.0,3.0,65,0.00,,,0.04,Wunderground v.1.15,2013-07-29 02:20:00,
2013-07-28 20:30:00,73.2,60.7,29.76,WSW,255,1.0,1.0,65,0.00,,,0.04,Wunderground v.1.15,2013-07-29 02:30:00,
2013-07-28 20:35:00,73.0,59.2,29.76,WSW,242,0.0,1.0,62,0.00,,,0.04,Wunderground v.1.15,2013-07-29 02:35:00,
2013-07-28 20:45:00,73.6,56.9,29.77,SSE,163,2.0,4.0,56,0.00,,,0.04,Wunderground v.1.15,2013-07-29 02:45:00,
2013-07-28 20:55:00,73.8,59.5,29.77,SSE,156,4.0,4.0,61,0.00,,,0.04,Wunderground v.1.15,2013-07-29 02:55:00,
2013-07-28 21:05:00,73.6,59.3,29.77,SSE,152,4.0,6.0,61,0.00,,,0.04,Wunderground v.1.15,2013-07-29 03:05:00,
2013-07-28 21:15:00,73.5,58.8,29.77,ESE,110,4.0,4.0,60,0.00,,,0.04,Wunderground v.1.15,2013-07-29 03:15:00,
2013-07-28 21:25:00,73.1,59.3,29.78,SSE,166,3.0,3.0,62,0.00,,,0.04,Wunderground v.1.15,2013-07-29 03:25:00,
2013-07-28 21:35:00,72.7,59.4,29.79,SSE,152,3.0,3.0,63,0.00,,,0.04,Wunderground v.1.15,2013-07-29 03:35:00,
2013-07-28 21:40:00,72.5,58.7,29.79,SE,144,3.0,3.0,62,0.00,,,0.04,Wunderground v.1.15,2013-07-29 03:40:00,
2013-07-28 21:50:00,72.3,59.0,29.80,ESE,123,3.0,3.0,63,0.00,,,0.04,Wunderground v.1.15,2013-07-29 03:50:00,
2013-07-28 22:00:00,71.9,59.1,29.80,ESE,112,2.0,2.0,64,0.00,,,0.04,Wunderground v.1.15,2013-07-29 04:00:00,
2013-07-28 22:05:00,71.8,58.5,29.80,ESE,119,2.0,2.0,63,0.00,,,0.04,Wunderground v.1.15,2013-07-29 04:05:00,
2013-07-28 22:10:00,71.5,58.7,29.81,ESE,122,1.0,1.0,64,0.00,,,0.04,Wunderground v.1.15,2013-07-29 04:10:00,
2013-07-28 22:15:00,71.2,58.4,29.81,ESE,121,0.0,1.0,64,0.00,,,0.04,Wunderground v.1.15,2013-07-29 04:15:00,
2013-07-28 22:20:00,71.0,58.6,29.81,SE,124,0.0,0.0,65,0.00,,,0.04,Wunderground v.1.15,2013-07-29 04:20:00,
2013-07-28 22:30:00,70.5,59.0,29.81,ESE,121,0.0,0.0,67,0.00,,,0.04,Wunderground v.1.15,2013-07-29 04:30:00,
2013-07-28 22:35:00,70.2,58.3,29.81,SE,125,0.0,0.0,66,0.00,,,0.04,Wunderground v.1.15,2013-07-29 04:35:00,
2013-07-28 22:40:00,70.2,58.7,29.81,SE,125,0.0,0.0,67,0.00,,,0.04,Wunderground v.1.15,2013-07-29 04:40:00,
2013-07-28 22:45:00,70.0,58.5,29.80,SE,125,0.0,0.0,67,0.00,,,0.04,Wunderground v.1.15,2013-07-29 04:45:00,
2013-07-28 22:55:00,69.7,57.8,29.80,SE,129,0.0,0.0,66,0.00,,,0.04,Wunderground v.1.15,2013-07-29 04:55:00,
2013-07-28 23:00:00,69.4,58.0,29.81,SE,130,0.0,0.0,67,0.00,,,0.04,Wunderground v.1.15,2013-07-29 05:00:00,
2013-07-28 23:10:00,68.9,58.3,29.81,SE,129,0.0,0.0,69,0.00,,,0.04,Wunderground v.1.15,2013-07-29 05:10:00,
2013-07-28 23:20:00,68.6,58.8,29.81,SE,129,0.0,0.0,71,0.00,,,0.04,Wunderground v.1.15,2013-07-29 05:20:00,
2013-07-28 23:30:00,68.6,58.8,29.82,South,191,0.0,0.0,71,0.00,,,0.04,Wunderground v.1.15,2013-07-29 05:30:00,
2013-07-28 23:40:00,69.3,59.5,29.83,WNW,297,1.0,1.0,71,0.00,,,0.04,Wunderground v.1.15,2013-07-29 05:40:00,
2013-07-28 23:45:00,69.6,59.4,29.84,West,262,1.0,2.0,70,0.00,,,0.04,Wunderground v.1.15,2013-07-29 05:45:00,
2013-07-28 23:55:00,70.4,59.7,29.85,West,281,2.0,2.0,69,0.00,,,0.04,Wunderground v.1.15,2013-07-29 05:55:00,